CP3102 SLET-SLTR

Flight info

Callsign CP3102
Flight time N/A
Altitude 6000
Route PAKES A301 TRI
Aircraft SR22/L-SDGRY/S

Departure

Time 2026-04-26 00:39
Airport El Trompillo Airport (SLET)

Arrival

Time N/A
Airport Teniente Av. Jorge Henrich Arauz Airport (SLTR)
Time Latitude Longitude Altitude Speed Heading
2026-04-26 00:35 -17.80318 -63.17664 1378 ft 16 kts 142°
2026-04-26 00:35 -17.80431 -63.17576 1379 ft 23 kts 139°
2026-04-26 00:35 -17.80573 -63.17469 1377 ft 27 kts 141°
2026-04-26 00:36 -17.80739 -63.17361 1375 ft 29 kts 149°
2026-04-26 00:36 -17.80908 -63.17265 1373 ft 12 kts 180°
2026-04-26 00:36 -17.81005 -63.17251 1371 ft 24 kts 144°
2026-04-26 00:36 -17.81182 -63.17126 1370 ft 32 kts 143°
2026-04-26 00:37 -17.81374 -63.16977 1369 ft 38 kts 143°
2026-04-26 00:37 -17.81601 -63.16806 1367 ft 50 kts 143°
2026-04-26 00:37 -17.81869 -63.16598 1362 ft 46 kts 143°
2026-04-26 00:37 -17.82094 -63.16445 1361 ft 26 kts 182°
2026-04-26 00:38 -17.82189 -63.16401 1360 ft 19 kts 58°
2026-04-26 00:38 -17.82173 -63.16386 1360 ft 0 kts 23°
2026-04-26 00:38 -17.82131 -63.16402 1361 ft 0 kts 323°
2026-04-26 00:38 -17.82040 -63.16470 1361 ft 50 kts 323°
2026-04-26 00:39 -17.81610 -63.16800 1404 ft 93 kts 323°
2026-04-26 00:39 -17.81122 -63.17220 1716 ft 87 kts 323°
2026-04-26 00:39 -17.80649 -63.17589 1974 ft 87 kts 323°
2026-04-26 00:39 -17.80176 -63.17984 2252 ft 82 kts 320°
2026-04-26 00:40 -17.79754 -63.18388 2566 ft 87 kts 316°
2026-04-26 00:40 -17.79254 -63.18825 2758 ft 107 kts 321°
2026-04-26 00:40 -17.78648 -63.19371 2907 ft 121 kts 319°
2026-04-26 00:40 -17.78010 -63.19989 3053 ft 130 kts 317°
2026-04-26 00:41 -17.77348 -63.20665 3195 ft 135 kts 316°
2026-04-26 00:41 -17.76682 -63.21374 3327 ft 138 kts 315°
2026-04-26 00:41 -17.76012 -63.22113 3432 ft 141 kts 314°
2026-04-26 00:41 -17.75344 -63.22867 3619 ft 139 kts 314°
2026-04-26 00:42 -17.74685 -63.23586 3796 ft 138 kts 316°
2026-04-26 00:42 -17.74022 -63.24312 3991 ft 137 kts 314°
2026-04-26 00:42 -17.73205 -63.24775 4168 ft 137 kts 346°
2026-04-26 00:42 -17.72260 -63.24850 4355 ft 140 kts
2026-04-26 00:43 -17.71335 -63.24983 4555 ft 134 kts 333°
2026-04-26 00:43 -17.70492 -63.25409 4749 ft 136 kts 342°
2026-04-26 00:43 -17.69559 -63.25246 4773 ft 161 kts 33°
2026-04-26 00:43 -17.69226 -63.24094 4725 ft 179 kts 88°
2026-04-26 00:44 -17.69405 -63.22792 4678 ft 184 kts 92°
2026-04-26 00:44 -17.69459 -63.21424 4325 ft 188 kts 80°
2026-04-26 00:44 -17.69294 -63.20134 4047 ft 187 kts 77°
2026-04-26 00:44 -17.69147 -63.18774 3701 ft 179 kts 75°
2026-04-26 00:45 -17.68946 -63.17709 3515 ft 129 kts 68°
2026-04-26 00:45 -17.68756 -63.16843 3149 ft 116 kts 67°
2026-04-26 00:45 -17.68555 -63.16066 2826 ft 112 kts 60°
2026-04-26 00:45 -17.68223 -63.15303 2706 ft 120 kts 50°
2026-04-26 00:46 -17.67842 -63.14507 2604 ft 123 kts 50°
2026-04-26 00:46 -17.67483 -63.13775 2324 ft 106 kts 50°
2026-04-26 00:46 -17.67086 -63.13145 1980 ft 96 kts 35°
2026-04-26 00:46 -17.66557 -63.12796 1695 ft 87 kts 28°
2026-04-26 00:47 -17.65987 -63.12652 1380 ft 91 kts 358°
2026-04-26 00:47 -17.65464 -63.12876 1228 ft 67 kts 325°
2026-04-26 00:47 -17.65229 -63.13027 1226 ft 27 kts 324°